Regional Weather Roundup
Issued by NWS

Home | Current Version | Previous Version | Graphics & Text | Print | Product List | Glossary On
Versions: 1 2 3 4 5 6 7 8 9 10 11 12 13 14 15 16 17 18 19 20 21 22 23 24 25 26 27 28 29 30 31 32 33 34 35 36 37 38 39 40 41 42 43 44 45 46 47 48 49 50
000
ASUS45 KSLC 201810
RWRUT

UTAH REGIONAL WEATHER ROUNDUP
NATIONAL WEATHER SERVICE SALT LAKE CITY UT
1200 PM MDT WED AUG 20 2014

UTZ001>011-023>025-201900-

NORTHERN UTAH

CITY           SKY/WX    TMP DP  RH WIND       PRES   REMARKS
HILL AFB       SUNNY     73  54  49 S13       30.04R
LOGAN          SUNNY     73  52  47 VRB5      30.00S
OGDEN          SUNNY     74  52  46 S14       30.02R
PROVO AIRPORT  MOSUNNY   68  55  64 E3        30.07S
SALT LAKE CITY MOSUNNY   73  55  53 S15G24    30.00F
VERNAL         MOSUNNY   68  54  60 SW8       30.05F
WENDOVER       SUNNY     77  48  36 S9        29.98S
HEBER CITY     MOSUNNY   64  52  63 SE3       30.09S
WEST JORDAN    SUNNY     73  63  68 SE17      30.04S

$$

UTZ012>022-026-027-201900-

SOUTHERN UTAH

CITY           SKY/WX    TMP DP  RH WIND       PRES   REMARKS
BRYCE CANYON   PTSUNNY   62  50  64 SE6       30.25R
CEDAR CITY     SUNNY     74  52  46 SW12      30.12S
MILFORD        MOSUNNY   75  54  47 SW23G29   30.07F
MOAB/CYNLANDS  MOSUNNY   74  56  53 SW6       30.02F
PRICE          PTSUNNY   68  53  58 VRB5      30.11S
ST GEORGE      PTCLDY    77  57  50 CALM      30.03S
KANAB            N/A     72  55  56 S10       30.16S

$$

REGIONAL REPORTS     COLORADO/ARIZONA

CITY           SKY/WX    TMP DP  RH WIND       PRES   REMARKS
CRAIG, CO      CLOUDY    70  52  52 W12       30.08F
GRAND JUNCTION LGT RAIN  68  60  75 W5        30.06S
RIFLE          MOSUNNY   70  54  56 S5        30.08S
MONTROSE       SUNNY     73  54  51 VRB3      30.11F
CORTEZ         MOSUNNY   75  48  38 W10G18    30.15F
PAGE, AZ       SUNNY     78  52  40 N6        30.07S
GRAND CANYON   MOSUNNY   68  46  45 SW12G17   30.24F
KINGMAN        SUNNY     80  54  40 CALM      30.06R
FLAGSTAFF      NOT AVBL

$$

REGIONAL REPORTS    NEVADA/IDAHO/WYOMING

CITY           SKY/WX    TMP DP  RH WIND       PRES   REMARKS
LAS VEGAS, NV  PTSUNNY   87  42  20 VRB5      29.91S
ELY            PTSUNNY   70  48  45 S8        30.12S
ELKO           SUNNY     78  40  25 W7        30.00S
POCATELLO, ID  MOSUNNY   76  55  48 CALM      29.97F
BURLEY         SUNNY     78  50  37 E6        29.92F
EVANSTON, WY   PTSUNNY   65  50  58 SW15G22   30.14S
ROCK SPRINGS   CLOUDY    64  48  56 W15G24    30.11S

$$


USA.gov is the U.S. government's official web portal to all federal, state and local government web resources and services.